Regional Weather Roundup
Issued by NWS Pendleton, OR

Home | Current Version | Previous Version | Text Only | Print | Product List | Glossary On
Versions: 1 2 3 4 5 6 7 8 9 10 11 12 13 14 15 16 17 18 19 20 21 22 23 24 25 26 27 28 29 30 31 32 33 34 35 36 37 38 39 40 41 42 43 44 45 46 47 48 49 50
000
ASUS46 KPDT 280425
RWRPDT
PENDLETON REGIONAL WEATHER ROUNDUP
NATIONAL WEATHER SERVICE PENDLETON OREGON
900 PM PDT SUN JUL 27 2014

NOTE: FAIR INDICATES FEW OR NO CLOUDS BELOW 12,000 FEET WITH NO
SIGNIFICANT WEATHER AND/OR OBSTRUCTIONS TO VISIBILITY.

# INDICATES UNOFFICIAL STATION AND DATA

WAZ520-280510-
EAST SLOPES OF WASHINGTON CASCADES

CITY            SKY/WX      TMP DP  RH  WIND    PRES   REMARKS
#BUMPING DAM    N/A         71  N/A N/A CALM    N/A
#CLE ELUM HS    N/A         78  57  48  W1      30.03R
#CLE ELUM LAKE  N/A         75  53  46  CALM    29.97R
#CLIFFDEL 2NW   N/A         77  53  43  N1      N/A
#GLENWOOD       N/A         69  62  78  CALM    29.98S
#MANASTASH CYN  N/A         71  52  51  CALM    30.10R
#NELSON         N/A         77  61  58  CALM    29.99R
#NELSON 3SW     N/A         68  58  70  CALM    30.18R
#RONALD 2NW     N/A         73  56  55  N1      30.00R
#TROUT LAKE 1NE N/A         72  62  71  NW2     29.98S
$$

WAZ521-280510-
SIMCOE HIGHLANDS

CITY            SKY/WX      TMP DP  RH  WIND    PRES   REMARKS
#BICKLETON HS   N/A         75  32  21  W3      30.15S
#CENTERVILLE 1SWN/A         80  49  34  SW1     29.93S
#GOLDENDALE 1NE N/A         81  37  21  S1      N/A
#GOLDENDALE 1S  N/A         82  50  33  CALM    30.02S
#GOLDENDALE 5WNWN/A         81  53  38  CALM    29.95S
#GOODNOE HILLS  N/A         83  46  27  NW3     29.97R
#LYLE 6NE       N/A         75  60  60  S2      29.94S
$$

WAZ026-280510-
KITTITAS VALLEY

CITY            SKY/WX      TMP DP  RH  WIND    PRES   REMARKS
ELLENSBURG AP   CLOUDY      82  53  37  N8      30.05R
#ELLENSBURG CWU N/A         81  56  42  CALM    29.92R
#ELLENSBURG 3NE N/A         75  57  54  CALM    30.05R
#ELLENSBURG 1E  N/A         76  59  56  CALM    N/A
#KITTITAS 3S    N/A         74  66  76  CALM    29.94R
#THORP 6N       N/A         76  55  48  N2      29.99R
$$

WAZ027-280510-
YAKIMA VALLEY

CITY            SKY/WX      TMP DP  RH  WIND    PRES   REMARKS
YAKIMA AIRPORT  CLOUDY      78  54  43  W3      30.02R
YAKIMA-VAGABOND MOCLDY      83  45  26  SE6     30.04R
#COWICHE 1N     N/A         78  55  45  CALM    30.18R
#DONALD 2NE     N/A         85  28  13  W1      30.33S
#GRANDVIEW      N/A         81  60  49  CALM    29.97R
#MABTON         N/A         81  59  47  S6      29.98R
#MOXEE 2E       N/A         80  41  25  CALM    29.93R
#NACHES 2SW     N/A         78  55  45  CALM    30.06S
#OUTLOOK DOT    N/A         N/A N/A N/A N6      N/A
#SELAH 8E       N/A         79  45  30  SE5     N/A
#TERRACE HTS    N/A         81  51  35  CALM    29.92R
#TOPPENISH      N/A         81  64  56  CALM    29.86F
#WAPATO 4NE     N/A         85  23  10  W1      30.32F
#WEST VALLEY    N/A         82  58  44  CALM    29.94R
#W YAKIMA       N/A         83  53  36  CALM    29.96R
#WHITE SWAN 5E  N/A         79  59  50  NW3     29.95S
#WILEY CITY 3W  N/A         75  39  27  CALM    30.00S
$$

WAZ028-280510-
LOWER COLUMBIA BASIN...WASHINGTON

CITY            SKY/WX      TMP DP  RH  WIND    PRES   REMARKS
PASCO           CLOUDY      77  60  56  N7      29.95S
PROSSER AWOS    N/A         81  59  47  W3      30.02R
RICHLAND AWOS   CLOUDY      84  45  26  W6      29.94F
#BASIN CITY 5SW N/A         80  49  34  CALM    29.97S
#BENTON CITY    N/A         81  60  49  NW2     29.83F
#CONNELL 5N     N/A         82  48  31  NW2     29.93R
#CONNELL 5NW    N/A         81  49  33  N6      29.91R
#ELTOPIA        N/A         83  50  32  N2      29.90R
#ELTOPIA 6NW    N/A         81  47  30  NW6     28.95S
#KENNEWICK 3S   N/A         86  41  21  CALM    29.94R
#PASCO-BROADMOORN/A         87  41  20  NE1     29.81S
#PATERSON       N/A         84  55  37  SW1     29.91S
#PROSSER        N/A         84  48  29  SW3     29.94S
#SAGEMOOR 2W    N/A         83  49  31  NW2     29.79S
#TOUCHET 2S     N/A         83  52  34  NW2     29.91R
#WEST PASCO     N/A         87  46  24  W1      29.92F
$$

WAZ029-280510-
FOOTHILLS OF THE BLUES...WASHINGTON

CITY            SKY/WX      TMP DP  RH  WIND    PRES   REMARKS
WALLA WALLA AP  CLOUDY      86  49  28  S8      30.00R
#COLLEGE PLACE  N/A         85  53  33  CALM    29.95R
#DAYTON SCHOOL  N/A         79  42  27  E1      30.01R
#LOWDEN 2SE     N/A         81  54  39  SW2     29.91R
#PLEASANT VIEW 1N/A         86  39  19  W6      29.96R
#PRESCOTT       N/A         80  47  31  CALM    29.90R
#SUDBURY        N/A         85  N/A N/A CALM    N/A
#WHITMAN COLLEGEN/A         83  54  37  E3      29.97R
#WAITSBURG 8N   N/A         75  26  16  CALM    29.82S
#WALLA WALLA 5E N/A         89  53  29  S15     N/A
#WALLA WALLA U  N/A         83  56  40  CALM    29.92R
#WHITMAN MISSIONN/A         80  56  44  CALM    29.93R
$$

WAZ030-280510-
BLUE MOUNTAINS...WASHINGTON

CITY            SKY/WX      TMP DP  RH  WIND    PRES   REMARKS
$$

ORZ009-041-WAZ024-280510-
COLUMBIA RIVER GORGE

CITY            SKY/WX      TMP DP  RH  WIND    PRES   REMARKS
HOOD RIVER AP   MOCLDY      73  66  79  CALM    30.01R
THE DALLES AP   CLOUDY      80  61  52  NW9     29.97R
#ARLINGTON AIRPON/A         86  45  24  E1      N/A
#ARLINGTON HS   N/A         86  45  24  W1      29.84R
#CELILO DOT     N/A         82  54  38  N3      N/A
#MOSIER 1S      N/A         74  54  50  CALM    30.09R
#MURDOCK        N/A         79  66  64  NW6     29.99R
#RUFUS DOT      N/A         89  54  31  W6      N/A

$$

ORZ510-280510-
NORTH CENTRAL OREGON

CITY            SKY/WX      TMP DP  RH  WIND    PRES   REMARKS
#CHENOWITH 1W   N/A         73  59  62  NW12    N/A
#COW CYN RST AREN/A         78  38  24  N6      N/A
#DUFUR 9E       N/A         81  44  27  E2      30.01R
#GRASS VALLEY 1SN/A         78  42  28  CALM    29.98S
#KENT DOT       N/A         77  36  23  NE3     N/A
#MAUPIN SCHOOL  N/A         86  43  22  CALM    30.03R
#MORO SCHOOL    N/A         78  47  34  CALM    30.08R
#SHANIKO 5WSW   N/A         76  34  22  NE10    N/A
#SHANIKO 4NW    N/A         75  37  25  E8      30.17S
#TYGH VALLEY 2NEN/A         83  46  27  CALM    29.96R
#WAPANITIA AIRPON/A         77  49  37  CALM    29.98R
#WASCO DOT      N/A         79  42  27  SE2     N/A
#WASCO AIRPORT  N/A         82  40  22  W3      N/A
#WASCO 5NE      N/A         76  44  32  CALM    29.97R
$$

ORZ511-280510-
CENTRAL OREGON

CITY            SKY/WX      TMP DP  RH  WIND    PRES   REMARKS
BEND AIRPORT    MOCLDY      75  41  29  W5      30.16
MADRAS AIRPORT  MOCLDY      79  39  24  N10     30.10S
REDMOND AIRPORT CLOUDY      78  39  25  NW8     30.12R
#BEND 6E        N/A         74  39  28  CALM    29.89R
#BEND 1SW       N/A         71  39  31  CALM    N/A
#BEND-AWBREY    N/A         74  45  35  S1      29.98R
#BEND-KIM LN    N/A         74  47  38  CALM    30.13R
#CROOKED RVR RANN/A         80  43  27  NE3     29.94F
#CULVER         N/A         77  45  32  NW1     30.05F
#LAKE BILLY CHINN/A         80  -2   4  N10     30.12R
#POWELL BUTTE   N/A         74  42  32  SW3     29.79R
#PRINEVILLE 3N  N/A         76  50  40  CALM    29.91R


ORZ509-280510-
EAST SLOPES OF OREGON CASCADES

CITY            SKY/WX      TMP DP  RH  WIND    PRES   REMARKS
#BLUE BOX PASS  N/A         67  12  12  N6      N/A
#BLACK BUTTE RNCN/A         69  57  66  CALM    29.99R
#CAMP SHERMAN   N/A         66  56  70  CALM    30.03S
#LA PINE DOT    N/A         71  37  29  NW2     N/A
#LA PINE 4NW    N/A         71  47  42  CALM    30.00S
#LAVA BUTTE DOT N/A         68  39  35  S15     N/A
#SISTERS AIRPOR N/A         73  53  49  CALM    30.12S
#SISTERS ODOT   N/A         70  N/A N/A CALM    N/A
#SISTERS 1NW    N/A         75  46  36  N6      N/A
#SISTERS 3N     N/A         68  48  49  CALM    N/A
#SUNRIVER       N/A         68  47  47  CALM    29.87R
#SUNRIVER AP    N/A         69  47  45  CALM    29.95R
#SUTTLE LK DOT  N/A         62  52  70  W7      N/A
#TUMALO 3W      N/A         76  42  30  N1      29.86R
#WANOGA BUTTE D N/A         68  38  33  N1      N/A

$$

ORZ044-280510-
LOWER COLUMBIA BASIN...OREGON

CITY            SKY/WX      TMP DP  RH  WIND    PRES   REMARKS
HERMISTON       CLOUDY      84  45  26  W3      29.96S
#BOARDMAN SCHOOLN/A         78  61  56  CALM    29.93R
#BOARDMAN 3W    N/A         78  58  50  S2      29.68R
#BOARDMAN 8SW   N/A         81  57  44  SW6     29.95R
#IONE SCHOOL    N/A         84  43  24  CALM    30.00R
#IRRIGON 4NW    N/A         82  55  40  S1      N/A
#UMATILLA SCHOOLN/A         88  58  36  CALM    30.03R
#UMATILLA       N/A         87  48  26  CALM    29.92S
$$

ORZ507-280510-
NORTHERN FOOTHILLS OF THE BLUES

CITY            SKY/WX      TMP DP  RH  WIND    PRES   REMARKS
PENDLETON AIRPT CLOUDY      83  41  23  NW10    30.02R
#ADAMS 3WNW     N/A         81  43  26  CALM    29.94R
#ATHENA         N/A         83  40  22  CALM    29.97R
#HELIX SCHOOL   N/A         82  41  23  CALM    29.93S
#HELIX 3N       N/A         82  36  19  N13     29.99F
#HOLDMAN 5SE    N/A         83  42  24  CALM    30.00F
#HOLDMAN 6E     N/A         82  39  22  N3      29.76S
#M-F FERNDALE   N/A         80  53  39  CALM    29.97R
#M-F GROVE ELEM N/A         87  41  20  CALM    29.98R
#M-FREEWATER 5SEN/A         77  54  45  W2      30.01R
#PDT AQUATIC CTRN/A         86  41  21  CALM    29.98R
#PENDLETON DNTN N/A         86  41  21  S3      29.95S
#PENDLETON 5NE  N/A         86  44  23  CALM    29.96R
#PDT SUNRIDGE   N/A         84  44  25  SE2     30.02R
#PENDLETON 7NW  N/A         84  51  32  SW2     29.17F
#PILOT ROCK     N/A         80  40  24  CALM    30.06R
#TUTUILLA       N/A         81  47  30  CALM    29.91R
#UMAPINE 2E     N/A         79  55  44  W1      29.93R
#WESTON SCHOOL  N/A         84  36  18  CALM    30.02R

$$

ORZ508-280510-
SOUTHERN FOOTHILLS OF THE BLUES

CITY            SKY/WX      TMP DP  RH  WIND    PRES   REMARKS
#AJAX           N/A         N/A N/A N/A CALM    30.11S
#CONDON SCHOOL  N/A         77  41  28  N3      30.07F
#CONDON 5W      N/A         76  37  24  E7      30.11F
#HEPPNER EOC    N/A         81  41  24  S1      29.92S
#HEPPNER 4NE    N/A         78  37  23  SE5     29.97S
#LEXINGTON 2SE  N/A         82  39  22  CALM    29.99F
#MIKKALO        N/A         81  37  21  E7      30.05S
#OLEX 4N        N/A         84  40  21  SE3     30.00R
#RUGGS 5NE      N/A         76  35  22  CALM    30.27F
#RUGGS 2SW      N/A         79  39  24  S1      30.01S

$$

ORZ502-503-280510-
BLUE MOUNTAINS

CITY            SKY/WX      TMP DP  RH  WIND    PRES   REMARKS
MEACHAM         CLOUDY      72  44  37  CALM    30.18R
#BATTLE MTN DOT N/A         70  45  41  N3      N/A
#HARDMAN 10S    N/A         71  40  32  CALM    30.24S
#HEPPNER 15SE   N/A         69  44  40  CALM    30.14R
#LADD CYN SMT   N/A         79  38  23  W13     N/A
#LADD CREEK ODOTN/A         82  49  32  S3      N/A
#LONG CREEK HS  N/A         76  44  32  CALM    30.12R
#PIKES PEAK     N/A         81  43  26  N5      27.99S
#TOLLGATE       N/A         70  43  38  E2      30.14S
#TOLLGATE 9W    N/A         75  58  56  W3      N/A
#TROY SCHOOL    N/A         83  52  34  NW5     29.77R
#UKIAH          N/A         76  41  28  CALM    30.04R
#WESTON 4E      N/A         75  44  33  CALM    29.90R
$$

ORZ505-280510-
JOHN DAY BASIN

CITY            SKY/WX      TMP DP  RH  WIND    PRES   REMARKS
JOHN DAY        PTCLDY      80  38  22  W12     30.17R
#JOHN DAY KJDY  N/A         81  39  22  CALM    30.10R
#MONUMENT HS    N/A         84  39  20  CALM    29.83R
#MT. VERNON 5SE N/A         77  39  25  CALM    30.13R
#WINLOCK        N/A         75  40  28  CALM    30.20S
$$

ORZ506-280510-
OCHOCO AND JOHN DAY HIGHLANDS

CITY            SKY/WX      TMP DP  RH  WIND    PRES   REMARKS
#BUCK CREEK DOT N/A         79  47  32  NW9     N/A
#HORSE RIDGE DO N/A         75  40  28  NW8     N/A
#KEYES SMT DOT  N/A         71  39  31  NW17    N/A
#PINE MTN OBS   N/A         68  36  31  NW1     N/A
#PRAIRIE CITY   N/A         74  43  33  CALM    29.96R
#SENECA 9NW     N/A         73  39  29  CALM    29.93R
$$

ORZ049-280510-
GRANDE RONDE VALLEY

CITY            SKY/WX      TMP DP  RH  WIND    PRES   REMARKS
LA GRANDE       CLOUDY      82  43  25  NW18G24 30.06R
#COVE           N/A         76  57  52  CALM    29.98R
#COVE SCHOOL    N/A         76  53  45  CALM    30.04R
#COVE 6NW       N/A         78  49  36  W8      29.96R
#ELGIN 3N       N/A         79  43  28  CALM    29.80R
#ELGIN 1E       N/A         83  49  31  CALM    N/A
#IMBLER SCHOOL  N/A         80  49  34  CALM    30.03R
#ISLAND CITY 4N N/A         79  51  38  CALM    29.86R
#LADD CYN DOT   N/A         84  47  28  SW7     N/A
#UNION 1S       N/A         80  50  35  NE1     29.82R
$$

ORZ050-280510-
WALLOWA COUNTY

CITY            SKY/WX      TMP DP  RH  WIND    PRES   REMARKS
JOSEPH AIRPORT  MOCLDY      68  45  44  S3      30.18R
#ENTERPRISE AP  N/A         66  35  32  CALM    29.99
#ENTERPRISE HS  N/A         75  48  38  CALM    30.12R
#IMNAHA SCHOOL  N/A         90  36  15  CALM    29.96R HX 86
#IMNAHA 10S     N/A         84  41  22  CALM    30.04R
#JOSEPH 3N      N/A         71  45  39  CALM    30.16S
#JOSEPH 3W      N/A         72  39  30  W2      30.04S
#LOSTINE        N/A         73  47  40  CALM    29.74R
#MT HOWARD 8000 N/A         64  33  31  N5      30.50S
#PROMISE 1S     N/A         75  45  34  CALM    30.03R
#SHEEP RDG 7000 N/A         68  36  31  CALM    29.94F
#WALLOWA SCHOOL N/A         78  49  36  CALM    30.80R



$$



USA.gov is the U.S. government's official web portal to all federal, state and local government web resources and services.